sat.trackr.live / text

‹ back to catalog

STARLINK-31678

NORAD 59493 · 2024-071K

PAYLOAD ACTIVE UNKNOWN

§ Identity

Operator
Country
US
Launch date
2024-04-13
Launch site
AFETR
Launch vehicle
Mass (kg)
RCS (m²)

Purposes: comms

External: N2YO · Heavens-Above · Gunter

§ Orbital elements

Epoch: 2026-05-24T18:45:06.300288Z

Period
94.27 min
Inclination
43.0041°
Eccentricity
0.0005178
Mean motion
15.27593941 rev/d
Perigee alt
479.5 km
Apogee alt
486.6 km
Semi-major
6,861.1 km
B*
4.7848e-5
RAAN
277.7373°
Arg perigee
277.4144°
Mean anomaly
82.6120°
Rev number
11,857

§ Raw data

STARLINK-316781 59493U 24071K   26144.78132292  .00001054  00000+0  47848-4 0  99992 59493  43.0041 277.7373 0005178 277.4144  82.6120 15.27593941118577

JSON: /api/v1/satellites/59493 · /tle

For live sub-satellite position, see the globe view (requires WebGL).

§ Visibility from observer

Set your observer location to see the next 7 days of passes ≥ 10°. The values pass through the URL so the page stays shareable.

No JS? Fill the form by hand. The geolocation button needs JavaScript.